Powrót do katalogu

FENGYUN 1C DEB

AktywnySSO
NORAD 31206·DEBRIS·🇨🇳 China

Wystrzelony May 10, 1999 z Taiyuan Satellite Launch Center

Loading…

Następne Przeloty (najbliższe 24 godziny)

TLE

ŚwieżeSource: Space-Track

Epoka: Sep 13, 2026, 14:06 UTC

1 31206U 99025BKL 26256.58750258  .00001082  00000-0  33738-3 0  9996
2 31206  98.8371 178.8717 0074726 265.3428  93.9222 14.41484047 17883

Śledź FENGYUN 1C DEB w czasie rzeczywistym z AllMySat

Download on the App Store